Theta_e
315 316 319 320 321 327 331 330 339 340 337 342 339 341 341 336 335 337 341 338 334 332 327 321 321 323 322 322 317 312 310 313 315 320 324 309 302 306 307 312 315 316 317 321 325 325 327 329 329 329 328 327 326 325 324 324 323 323 323 323 322 322 322 322 322 322 323 323 322 324 323 323 323 322 322 321 320 321 321 321 320 320 320 319 321 322 322 322 322 321 321 321 320 319 318 315 314
315 318 321 323 324 329 333 334 342 341 339 342 338 342 340 336 337 339 342 338 333 327 318 313 314 315 315 314 313 315 310 306 304 306 307 302 303 307 307 311 314 317 320 323 325 325 328 329 330 329 328 327 326 325 325 324 323 322 322 322 322 322 323 322 320 320 322 323 323 323 323 322 322 322 321 320 320 321 321 322 321 320 320 319 320 321 321 322 321 321 321 320 320 319 318 316 314
316 319 323 326 326 330 335 337 341 340 341 342 340 342 336 337 341 340 337 334 332 324 317 316 317 313 317 319 314 317 311 303 302 301 303 302 301 304 305 308 312 317 320 323 324 325 326 327 329 329 328 327 326 325 324 323 323 322 322 322 320 321 323 322 320 320 321 322 323 323 322 322 321 322 322 321 320 320 321 321 321 320 319 318 320 321 322 322 321 321 320 320 319 318 318 316 314
317 320 324 327 329 334 339 339 337 339 341 339 341 342 339 341 340 337 332 328 326 324 319 319 315 307 314 316 308 311 307 302 301 300 302 300 298 299 301 306 311 315 318 321 323 324 324 325 327 328 328 327 325 324 324 323 322 322 321 321 320 318 321 322 321 321 322 322 323 322 322 321 321 321 322 321 320 320 320 320 320 320 319 318 319 320 321 322 321 321 320 319 319 318 317 316 314
319 321 323 326 331 334 336 335 334 338 341 340 341 341 339 339 339 336 327 319 318 321 321 319 314 307 307 306 305 307 303 301 300 299 300 298 297 297 300 305 309 313 316 318 320 322 321 323 325 326 327 326 325 324 323 323 322 322 321 321 321 318 318 321 321 321 321 322 321 321 321 321 320 321 321 321 320 320 320 319 319 319 319 319 319 320 320 321 321 321 320 319 319 318 318 316 314
321 322 324 324 326 328 333 335 335 338 339 337 338 340 335 331 334 333 321 315 314 315 317 317 312 308 304 300 302 301 298 300 300 299 298 296 295 297 301 304 308 312 313 315 318 319 318 320 321 323 325 325 324 323 323 323 322 322 321 321 321 320 319 320 321 320 320 321 321 321 321 320 320 320 320 320 320 320 319 319 318 319 319 319 318 319 320 321 321 320 320 320 319 318 318 317 314
321 324 329 329 326 328 334 336 337 339 337 333 335 337 332 327 325 323 318 317 316 312 313 310 307 311 305 300 301 298 297 299 298 298 296 294 294 296 301 304 308 309 309 312 314 316 317 317 318 319 321 322 322 323 323 323 322 322 322 321 320 320 319 320 320 319 319 320 320 320 320 320 320 320 320 320 319 319 319 319 318 319 318 318 318 318 319 320 321 320 320 320 319 318 317 317 315
321 325 328 334 334 330 333 334 335 336 333 327 327 328 323 322 319 318 318 317 316 311 310 307 308 315 307 302 303 298 297 297 296 296 293 293 293 295 299 303 305 303 305 308 310 313 314 314 315 316 316 317 318 319 321 321 321 321 322 321 320 320 319 319 319 319 319 318 319 319 319 319 319 319 319 319 318 318 318 318 318 318 318 318 318 318 318 320 320 320 320 320 319 318 317 317 315
318 321 324 330 333 329 331 332 330 331 332 322 315 318 316 317 317 317 319 314 313 310 307 306 308 316 308 302 302 297 296 296 295 294 293 293 292 294 296 298 298 297 300 303 306 307 309 310 310 312 312 312 313 313 315 316 318 318 319 320 320 320 319 320 319 319 319 319 318 319 318 318 318 319 319 318 318 318 318 318 318 318 317 317 317 318 318 318 319 320 320 320 320 318 317 317 316
318 321 324 328 329 328 331 329 330 329 325 318 311 314 312 313 317 317 317 313 309 309 306 303 307 310 306 304 301 296 295 295 294 294 293 293 292 293 293 294 294 294 295 297 300 301 303 305 305 306 307 308 307 307 309 310 312 313 315 316 316 317 317 318 318 318 318 319 318 318 318 318 318 318 318 318 318 317 317 318 317 317 317 317 317 317 317 317 318 319 320 320 320 319 318 318 316
325 325 324 325 324 326 330 329 333 331 319 315 313 314 312 312 316 315 314 311 307 309 307 304 307 305 302 302 299 295 294 294 293 293 292 292 292 292 292 292 292 292 292 293 294 296 297 298 299 298 299 302 302 301 302 304 305 307 308 310 311 312 313 314 315 315 316 317 316 317 317 317 318 318 318 318 318 317 317 317 317 317 317 317 317 316 317 317 317 318 319 319 320 320 318 318 316
323 326 328 326 326 324 326 328 332 331 322 316 312 310 309 310 314 313 314 312 308 309 306 303 305 305 304 300 296 294 294 293 293 292 292 292 292 292 292 292 292 292 291 292 292 292 292 293 294 294 294 296 297 297 297 298 299 299 301 303 305 307 309 310 311 312 312 312 313 315 315 316 317 317 317 317 318 317 317 317 316 316 316 316 316 316 316 316 317 317 318 319 320 320 318 318 315
324 327 329 325 326 324 321 325 326 322 320 317 312 309 306 309 312 312 313 311 309 309 305 300 302 305 305 299 296 294 293 293 292 292 292 291 291 291 291 291 291 292 291 291 291 291 291 291 291 291 292 292 294 295 294 294 294 295 296 297 298 301 304 304 305 306 308 309 309 311 313 314 315 315 316 316 317 317 316 316 316 316 316 316 315 315 315 315 316 316 317 318 319 319 318 317 315
322 326 326 320 320 321 319 320 320 317 318 318 311 308 307 307 308 307 309 310 307 304 302 298 300 304 303 298 297 295 293 293 292 292 291 291 291 290 290 290 290 290 290 290 290 290 290 290 290 290 290 291 291 292 292 292 292 292 293 293 294 295 297 297 297 298 302 304 305 307 309 311 313 313 314 315 315 316 315 316 316 316 315 315 315 315 315 315 315 316 316 317 317 318 317 318 316
315 326 325 317 316 318 318 315 315 316 319 318 308 308 308 303 304 305 305 309 304 297 298 297 297 303 303 301 298 294 293 293 292 291 291 291 290 290 289 289 289 289 289 289 289 288 289 289 289 289 289 289 289 289 289 289 290 290 291 291 291 292 293 293 293 293 294 297 299 302 305 307 308 310 311 312 314 315 315 315 315 315 315 315 315 315 314 315 315 316 316 316 316 317 317 317 317
315 325 319 315 317 316 317 313 311 314 318 316 305 306 309 302 302 304 299 302 302 294 296 297 295 298 300 299 296 293 293 292 292 291 290 290 290 290 289 289 289 288 288 288 288 287 288 288 288 288 288 288 288 288 288 288 289 289 289 289 289 290 291 291 291 291 290 291 293 295 299 303 305 306 308 309 311 313 314 315 315 315 315 315 315 314 314 314 315 315 315 315 315 317 316 316 317
316 321 316 314 317 314 317 314 311 314 317 314 304 305 311 305 300 299 295 297 299 295 293 294 292 293 294 293 293 292 293 292 291 290 290 290 289 289 289 289 288 288 288 287 287 287 287 287 288 288 288 288 288 288 288 288 288 289 289 289 289 289 289 290 290 291 290 290 290 291 293 296 298 301 303 305 307 310 313 314 314 315 314 314 315 314 314 314 314 314 314 315 315 315 316 315 315
313 315 313 312 316 315 318 318 313 311 311 311 306 307 311 308 302 298 298 297 295 295 293 292 292 291 291 291 292 292 292 291 290 290 290 289 289 289 289 289 288 288 288 287 287 287 287 287 287 287 287 287 287 287 287 287 287 288 288 288 288 288 288 289 289 290 290 290 290 290 290 291 292 294 297 299 302 306 309 312 313 314 314 314 314 314 314 314 313 313 313 314 315 314 314 315 314
318 316 310 316 324 319 316 316 312 309 308 310 308 306 306 307 305 300 302 300 296 299 294 291 293 291 291 291 291 291 290 290 290 290 289 289 289 289 289 289 288 288 287 287 287 287 287 287 287 287 287 287 287 287 287 287 287 287 287 287 287 287 288 288 288 289 290 290 290 290 290 290 290 291 292 294 297 300 304 308 310 312 313 313 313 313 314 314 313 313 312 312 313 313 314 314 314
317 313 310 322 323 317 314 312 312 309 305 309 308 304 303 304 302 301 305 302 299 303 297 293 293 291 292 290 290 290 290 290 289 289 289 289 289 288 288 288 288 288 287 287 287 287 286 287 287 287 287 287 287 287 287 286 286 286 286 286 287 287 287 287 288 288 289 290 290 290 290 290 290 290 290 291 293 295 297 301 305 308 311 311 312 312 312 313 313 313 312 311 311 312 313 314 314
309 310 315 318 312 311 312 309 310 309 304 308 309 304 304 302 301 303 305 303 304 303 298 296 294 291 292 290 289 290 289 289 289 289 289 288 288 288 288 288 288 288 287 287 286 286 286 287 287 287 287 287 286 286 286 286 286 286 286 286 286 286 286 287 287 287 288 290 290 291 290 290 289 290 290 290 291 291 293 295 298 302 306 308 310 310 310 311 312 312 312 311 311 310 311 312 313
307 312 314 311 307 307 310 307 307 307 305 308 308 305 304 301 301 304 304 307 310 305 298 295 292 290 291 290 289 289 288 288 288 288 288 288 287 287 287 287 287 287 287 287 286 286 286 286 286 286 286 286 286 286 286 286 286 286 286 286 286 286 286 286 287 287 287 288 290 291 291 290 290 290 289 290 290 290 291 292 293 296 299 303 306 308 309 309 310 310 311 311 311 310 310 311 312
309 315 311 307 307 306 306 306 306 307 306 308 309 304 302 301 302 303 303 305 304 299 295 293 291 290 290 289 289 289 288 287 288 288 287 286 286 286 286 286 286 286 286 286 286 286 286 286 286 285 285 285 285 285 285 285 285 285 285 286 286 286 286 286 286 287 287 287 289 290 291 290 290 290 289 290 290 290 290 290 291 292 294 298 301 304 306 307 308 308 309 310 310 310 310 310 310
311 314 310 305 305 305 305 305 306 307 306 306 305 301 303 305 303 301 301 299 295 293 292 290 290 289 289 289 289 288 288 287 287 287 286 285 285 285 285 285 286 285 285 286 286 286 286 286 285 285 285 285 285 285 285 285 285 285 285 285 285 286 286 286 286 286 287 287 288 289 290 291 290 290 290 290 290 290 290 290 290 290 292 294 296 299 302 305 306 307 308 308 309 309 308 309 310
311 310 311 307 304 305 306 305 307 307 305 303 302 302 304 303 300 301 299 294 291 291 290 289 289 288 289 290 289 287 287 287 287 286 286 285 285 285 285 285 285 285 285 285 285 285 286 285 285 285 285 285 285 285 285 285 285 285 285 285 285 285 286 286 286 286 286 287 287 288 290 290 290 290 290 290 290 289 289 289 289 289 290 291 293 295 298 301 304 305 306 307 307 308 308 308 309
309 310 312 308 305 307 307 305 306 306 304 302 302 305 304 298 298 300 295 291 291 290 290 289 289 290 290 290 289 287 286 286 285 285 285 285 285 285 285 285 285 285 285 285 285 285 285 285 285 285 285 285 285 285 285 285 285 285 286 286 285 285 285 286 286 286 286 286 287 288 289 290 290 290 290 290 290 289 289 289 289 289 289 290 291 293 295 297 300 303 304 305 306 307 308 307 308
309 311 310 307 305 304 303 303 304 304 303 302 303 306 304 298 300 302 294 290 291 289 290 290 290 291 290 290 288 286 286 285 285 285 284 284 284 285 284 285 285 285 285 284 284 284 285 285 285 285 285 285 285 285 285 285 286 286 286 286 286 285 285 286 286 286 286 286 287 288 289 290 290 290 290 290 290 290 289 289 288 288 289 289 290 291 292 294 297 300 302 303 304 305 306 307 307
307 308 308 307 306 302 301 303 304 303 303 302 302 304 303 299 301 302 294 290 291 290 290 290 290 290 289 288 287 285 285 284 284 284 284 284 284 284 284 284 284 284 284 284 284 284 284 285 284 284 285 285 284 284 284 284 285 286 286 286 286 286 286 286 286 286 286 286 286 287 288 290 290 290 290 290 290 289 289 289 288 288 288 289 289 289 290 292 294 296 298 300 302 304 305 306 307
307 305 308 310 307 303 301 303 305 303 302 302 302 301 302 304 302 297 292 291 290 289 290 289 290 289 288 287 286 285 284 284 284 284 284 284 284 284 284 284 284 284 284 284 284 284 284 284 284 284 284 284 284 283 283 283 284 286 286 286 286 286 286 286 286 286 286 285 286 286 287 289 290 290 289 289 289 289 289 289 288 288 288 288 289 289 289 290 291 293 296 297 300 302 303 305 306
305 302 307 310 306 305 300 300 305 302 301 302 302 300 301 305 300 293 292 290 289 290 289 289 289 288 287 286 285 285 284 284 284 284 284 284 284 284 284 284 284 283 284 284 283 284 284 283 283 283 283 284 283 283 283 283 284 285 286 285 285 285 285 285 285 286 286 285 286 286 287 287 288 288 288 288 288 288 288 288 288 288 288 288 288 289 289 289 289 291 293 295 297 298 300 303 305
304 303 308 306 302 307 304 302 305 301 300 301 300 299 300 301 296 292 292 290 290 290 289 289 288 287 286 285 285 285 284 284 284 284 284 284 284 284 284 284 283 283 283 283 283 283 283 283 283 283 283 283 283 283 283 284 285 285 285 285 285 284 284 284 284 284 284 285 285 286 287 287 287 287 287 287 287 287 287 287 288 288 288 288 288 288 289 289 289 289 290 292 294 295 297 299 302
306 304 307 304 300 305 304 302 304 300 298 300 300 301 302 299 293 292 292 290 290 289 288 288 287 286 285 285 284 285 284 283 284 284 284 284 284 283 283 284 283 283 283 283 283 283 283 282 282 282 283 283 283 283 283 284 285 285 285 284 284 283 283 283 283 283 283 283 284 285 286 286 286 286 286 287 287 287 287 287 287 287 287 288 288 288 288 288 288 288 289 290 292 294 295 296 299
309 302 300 302 300 301 302 302 301 297 298 301 300 299 300 298 292 291 292 290 289 289 288 287 286 285 285 285 284 284 284 283 283 284 284 284 283 283 283 283 283 283 282 282 282 282 282 282 282 282 282 283 282 282 283 284 285 284 284 284 283 283 283 283 283 283 283 283 283 284 284 285 285 285 285 286 286 287 286 286 286 287 287 287 288 288 288 288 288 288 288 290 292 294 294 295 297
306 303 299 300 300 299 302 302 299 298 300 300 299 298 298 296 291 290 290 289 289 288 288 286 286 285 285 285 284 284 284 284 283 283 283 283 283 283 283 283 283 282 282 282 281 281 281 281 282 282 282 282 282 283 283 284 284 283 283 283 283 283 283 283 283 283 283 282 283 283 283 283 283 284 285 286 286 286 286 286 286 286 286 287 287 287 288 288 288 288 288 290 292 293 293 293 294
301 301 299 299 299 300 302 302 301 300 299 298 298 299 297 293 290 290 289 289 289 288 287 286 285 285 285 284 284 284 284 284 284 283 283 283 282 282 282 282 282 282 282 281 281 281 281 281 281 281 281 281 282 282 282 283 282 282 282 282 283 283 283 283 282 282 282 283 282 282 282 282 283 283 285 285 285 285 286 286 286 286 286 286 286 287 287 288 288 288 288 290 291 291 292 292 292
299 299 299 299 297 298 300 301 302 298 298 300 300 298 294 291 290 289 289 288 288 287 287 286 286 285 285 285 285 284 284 284 284 283 283 283 282 282 282 282 282 281 281 281 281 281 281 281 280 280 280 280 280 280 281 282 282 282 281 281 282 283 283 282 282 282 282 282 282 282 282 282 282 283 285 285 285 285 285 285 285 285 285 285 286 286 286 287 287 288 288 290 290 290 290 291 292
298 299 299 298 297 297 297 299 301 299 299 301 300 297 292 290 290 289 289 288 288 287 286 286 285 285 285 285 285 285 284 284 283 283 283 282 282 282 282 281 281 281 281 280 280 280 280 280 279 279 278 278 279 279 280 281 281 281 281 281 281 282 282 282 282 282 281 282 282 282 282 282 283 283 284 284 284 284 284 284 284 285 285 285 285 286 286 286 286 287 288 290 290 289 289 289 290
299 299 298 298 297 298 297 298 299 298 298 299 299 297 292 290 290 289 288 287 287 286 285 285 285 285 285 285 285 285 284 284 283 283 282 282 282 281 281 281 280 280 280 280 280 280 279 279 278 278 278 278 278 278 279 279 279 280 280 280 280 281 282 282 281 281 281 281 281 281 281 282 283 283 284 284 284 284 284 283 284 284 284 284 284 285 285 285 286 286 288 290 290 289 288 289 289
298 298 298 299 298 298 298 299 299 297 296 297 299 297 291 289 289 288 288 286 286 286 285 285 285 285 285 285 285 284 284 283 282 282 282 282 281 281 281 280 280 280 280 280 280 279 279 278 278 278 278 278 277 277 277 278 278 279 279 279 279 280 281 281 281 280 280 280 280 281 281 282 282 283 283 283 283 283 283 283 283 283 283 284 284 284 284 284 285 286 288 290 290 289 288 289 289
298 298 298 300 298 297 298 299 298 297 295 296 298 296 291 289 288 287 287 286 285 285 285 285 285 284 284 284 284 283 283 283 282 282 282 281 281 281 280 280 280 280 280 280 279 278 278 278 278 278 277 277 277 277 277 277 277 278 278 278 279 280 280 280 279 279 279 279 280 281 281 282 281 282 282 282 282 282 282 281 282 282 282 283 283 284 284 284 285 285 287 289 289 289 289 290 289
297 298 299 299 297 296 297 296 296 295 296 296 296 296 292 289 288 287 287 287 285 285 285 284 284 285 284 284 283 283 283 283 282 281 281 281 281 280 280 280 280 279 280 280 279 278 278 278 278 277 277 277 277 277 276 276 277 278 277 277 277 278 278 278 278 278 279 279 280 280 281 281 281 281 281 281 280 280 280 280 280 280 281 282 283 283 284 284 285 285 286 287 288 288 289 290 289
297 298 299 297 297 296 296 295 295 295 296 296 295 297 296 291 289 288 287 286 285 284 284 284 284 284 284 284 283 283 283 282 281 281 281 281 280 280 280 280 279 279 279 279 279 278 278 278 278 277 277 277 277 277 276 276 277 277 277 276 276 277 277 278 278 278 279 280 280 280 280 280 280 280 280 280 279 279 279 279 279 279 279 280 281 282 282 283 284 284 285 286 286 287 288 289 289
298 298 297 296 296 296 296 295 295 296 296 295 294 296 296 293 290 289 288 287 286 285 284 284 283 283 284 283 283 282 282 282 281 281 281 281 280 280 280 280 279 279 279 279 279 278 278 278 277 277 277 277 277 276 276 276 276 276 276 275 275 276 277 277 277 277 278 279 279 280 280 280 279 278 278 278 278 278 278 278 278 278 279 279 279 280 281 282 283 283 284 285 285 286 288 289 289
298 297 296 296 296 296 296 295 294 295 295 295 295 295 295 295 293 291 289 288 287 285 284 284 283 283 284 284 283 283 282 281 281 281 281 281 280 280 280 280 279 279 279 279 279 278 278 278 277 277 277 277 277 276 276 276 276 276 275 275 275 276 276 276 276 276 276 276 277 278 279 279 278 277 277 276 276 277 277 277 277 277 278 278 278 279 280 281 282 282 283 283 285 286 287 289 289
298 298 296 295 296 296 295 295 295 294 293 296 296 293 294 295 294 291 289 288 286 286 285 284 284 284 284 283 283 283 282 282 281 281 281 281 280 280 280 279 279 279 279 279 279 278 278 277 277 277 277 277 276 276 276 276 276 275 275 275 275 275 275 275 275 274 274 275 276 277 278 278 278 276 276 276 275 276 276 276 276 277 277 278 278 279 279 280 281 282 283 283 285 285 287 288 289
298 298 296 296 296 295 295 295 295 294 294 297 295 292 293 294 294 292 290 289 287 286 284 284 284 284 284 283 282 283 282 281 281 281 281 281 280 280 280 279 279 279 279 279 279 278 277 277 277 277 277 277 276 276 276 276 275 275 274 274 274 274 275 274 274 273 274 275 276 278 278 277 276 276 275 275 275 275 275 275 276 277 277 278 278 278 278 279 279 280 282 283 285 286 287 288 288
298 298 297 296 295 296 297 296 296 296 296 296 294 292 292 293 295 293 289 288 287 285 284 284 284 284 283 283 282 282 282 282 282 281 281 281 280 280 279 279 279 279 279 279 279 278 277 277 277 277 277 276 276 276 275 275 275 274 274 274 274 274 274 273 273 273 274 275 277 278 277 277 276 275 275 274 274 274 274 275 276 277 277 278 278 278 277 277 278 279 282 284 285 286 286 287 287
297 296 296 296 295 296 297 297 298 297 295 294 293 292 292 294 295 290 285 285 285 284 284 283 283 283 283 283 282 282 282 282 282 281 281 280 280 280 279 279 279 279 279 279 279 278 277 277 277 277 277 276 276 275 275 275 274 274 273 274 274 273 273 273 273 273 274 275 277 277 277 276 276 275 274 274 274 274 274 275 276 277 277 278 277 277 277 277 277 279 282 284 285 285 285 285 286
296 296 296 296 296 295 295 295 296 296 295 294 293 292 293 294 292 286 283 284 284 284 284 283 283 283 283 282 282 282 282 282 281 281 280 280 280 279 279 279 279 279 278 279 278 278 277 277 277 277 276 276 275 275 274 274 274 273 273 273 273 273 273 272 272 272 273 274 275 276 276 275 274 274 274 273 273 273 274 275 276 277 277 277 276 276 276 276 276 277 279 282 283 284 284 284 285
295 296 296 297 296 295 295 294 294 294 294 293 292 292 294 294 291 285 283 284 284 284 284 284 283 283 283 282 282 282 282 281 281 281 280 280 279 279 279 279 279 279 279 278 278 277 277 277 277 276 276 275 275 274 274 273 273 273 273 273 273 272 272 272 271 271 271 272 273 274 274 273 273 273 273 273 273 273 273 274 276 276 276 276 275 275 275 275 275 276 278 280 282 283 283 284 285
295 295 296 297 295 294 294 294 293 293 293 293 293 294 297 296 289 284 284 284 284 284 284 284 284 283 283 282 282 282 281 281 280 280 280 280 280 279 279 279 279 279 278 278 277 277 277 277 276 276 275 275 274 274 273 273 273 272 272 272 272 271 271 271 271 270 271 271 271 271 272 271 271 272 272 272 272 272 273 274 275 275 275 275 275 275 275 275 275 277 278 280 281 282 283 284 285
295 295 295 296 295 295 295 293 293 293 292 293 294 295 296 292 286 284 284 284 284 285 285 284 284 283 282 282 282 281 281 281 280 280 280 280 280 279 279 279 279 278 278 277 277 277 277 276 276 275 274 274 273 273 273 272 272 272 272 272 271 270 270 270 270 270 270 270 270 270 270 270 270 270 271 271 271 272 273 273 273 274 274 274 274 275 275 276 277 278 279 280 281 282 283 284 284
296 295 294 293 292 293 294 293 292 292 292 293 294 294 293 290 286 284 283 284 286 286 285 284 283 282 282 282 281 281 281 280 280 280 280 280 279 279 279 279 278 278 277 277 277 277 277 276 275 274 274 273 273 272 272 272 272 272 271 271 270 270 270 270 270 269 269 269 269 269 269 269 270 270 270 271 271 272 272 273 273 273 274 275 275 276 277 278 279 279 280 280 281 282 283 283 284
296 296 293 293 292 292 293 292 291 291 292 292 292 291 291 291 289 284 283 285 286 286 285 283 282 282 282 281 281 281 280 280 280 280 280 279 279 279 279 278 278 278 277 277 277 276 275 275 274 273 273 273 272 272 271 271 271 271 270 270 269 269 270 269 269 269 268 268 268 269 269 269 269 270 270 270 270 271 271 272 272 273 274 275 275 276 276 277 278 279 280 281 281 282 282 283 284
294 295 293 292 293 293 292 291 290 291 291 291 291 291 290 292 290 286 285 286 286 285 284 283 282 282 281 281 280 280 280 280 280 279 279 279 279 279 278 278 278 278 277 277 276 275 274 274 273 273 272 272 271 271 271 271 271 270 270 269 269 269 270 269 268 268 268 268 268 269 269 269 268 268 268 268 269 269 269 270 271 272 273 273 274 274 275 276 278 280 281 282 282 282 283 283 284
294 294 292 293 293 292 290 289 291 292 291 290 291 290 290 290 289 287 287 286 285 284 283 282 281 281 281 280 280 280 280 280 279 279 279 279 279 279 278 278 278 277 277 276 275 274 273 273 272 271 271 271 271 271 271 270 270 269 269 269 269 269 269 268 268 268 268 268 268 268 268 268 268 268 268 268 268 268 269 269 270 271 272 272 273 273 274 277 278 280 281 282 282 282 283 283 284
294 294 293 294 293 290 290 290 290 291 290 290 290 289 289 288 287 287 286 286 284 283 282 281 281 281 280 280 280 280 279 279 279 279 279 279 278 278 278 277 277 276 275 274 273 272 272 271 271 270 270 270 270 270 270 270 269 269 269 269 269 268 268 268 268 268 267 267 267 267 267 267 267 267 267 267 268 268 269 269 270 271 271 272 272 273 275 277 278 279 281 282 282 282 283 284 284
292 292 291 292 290 289 289 289 290 291 289 288 288 288 288 288 287 286 286 285 283 283 282 281 281 280 280 280 280 279 278 278 279 278 278 278 277 277 277 276 275 274 273 272 272 271 271 270 269 269 269 270 270 269 269 269 269 268 268 268 268 268 267 267 267 267 267 267 267 267 267 267 267 267 267 267 268 268 269 270 270 271 271 272 273 274 276 277 277 277 278 280 282 283 283 284 284
Wind_Speed
3 3 2 2 3 4 1 3 1 2 1 2 1 1 2 2 1 2 3 2 0 2 1 3 4 4 5 6 8 9 6 4 2 1 4 8 14 11 23 24 21 19 15 9 5 2 3 7 9 6 6 7 5 5 4 4 3 3 3 3 4 4 3 3 4 6 5 6 6 6 5 3 4 5 5 4 3 4 4 5 5 7 7 6 7 10 11 11 11 9 9 8 8 6 5 7 7
3 2 2 3 4 3 0 2 1 1 1 3 1 2 3 3 2 5 4 1 1 2 1 5 8 8 7 8 8 7 7 6 3 2 2 16 14 11 27 24 21 21 15 10 5 2 3 6 9 7 6 7 6 5 5 4 3 4 4 3 4 4 4 3 4 6 6 6 7 7 5 5 5 5 5 5 5 5 5 5 6 7 7 7 7 10 11 11 11 10 9 9 9 6 6 7 3
3 2 3 4 3 3 1 2 0 1 1 4 2 2 2 3 5 6 4 2 3 2 3 4 7 4 5 7 6 3 3 3 6 4 3 19 15 15 26 22 21 20 14 11 6 4 5 6 7 7 6 7 7 6 5 5 4 4 4 3 4 4 4 4 4 5 6 7 8 8 6 6 5 6 6 6 7 6 6 5 5 7 7 8 9 9 10 10 11 10 10 10 9 8 7 5 3
3 2 3 3 2 3 2 1 1 2 2 2 2 4 2 3 6 5 4 4 4 1 2 3 5 4 4 6 4 2 2 1 7 7 3 15 15 16 21 21 21 18 14 13 9 8 11 10 7 6 7 6 6 5 4 4 3 3 3 3 3 4 4 5 5 6 7 7 7 7 6 7 6 6 6 6 7 7 6 6 5 7 8 9 10 10 9 10 10 10 10 10 9 9 8 6 5
3 3 3 2 1 1 1 0 1 2 3 2 1 5 3 5 6 5 3 2 2 1 2 3 3 2 5 5 2 1 3 3 5 10 6 13 15 15 18 21 21 19 17 16 13 12 15 13 8 9 7 5 6 5 3 2 3 3 3 3 3 4 5 5 5 6 7 7 6 7 7 7 6 7 7 7 7 7 6 7 6 7 8 10 11 11 9 9 10 10 11 11 10 10 9 8 5
3 4 4 3 1 0 1 1 1 2 4 3 2 5 4 5 5 5 2 2 4 5 3 3 3 3 5 3 4 3 3 2 2 9 10 12 16 18 19 22 21 22 22 20 17 16 19 16 12 13 12 7 1 2 2 3 5 3 3 3 4 3 4 4 5 7 8 8 7 7 8 8 7 7 8 8 8 8 7 7 7 8 9 10 11 12 9 8 10 12 12 12 12 11 10 9 8
4 3 3 3 1 1 2 3 3 3 4 4 4 4 5 5 3 2 1 1 3 7 5 3 4 7 4 1 3 6 9 7 3 7 10 12 17 20 21 22 22 25 25 24 22 19 21 20 17 16 18 17 11 7 5 4 5 4 6 2 2 3 4 4 6 8 8 9 9 8 8 9 10 9 9 9 7 7 8 8 8 9 10 11 11 12 11 8 11 12 12 13 13 12 12 11 11
4 2 1 3 1 2 2 3 3 3 3 3 4 4 5 5 2 1 1 1 1 3 4 2 1 5 2 2 4 4 12 12 8 9 12 16 20 23 24 24 26 28 27 26 26 23 22 22 22 20 20 22 22 18 12 9 9 8 7 4 3 4 5 6 6 7 9 9 9 9 9 9 10 10 10 10 8 7 8 9 8 9 11 12 12 12 11 9 10 13 13 14 14 13 13 13 12
4 2 0 2 1 1 0 3 3 3 4 4 3 4 3 2 2 2 1 2 1 2 4 3 2 4 2 5 3 1 9 11 10 12 16 20 23 26 27 28 29 30 30 29 28 28 26 26 26 25 24 25 27 26 21 17 16 16 13 9 9 8 8 9 8 6 8 10 9 9 9 8 9 10 10 10 10 10 9 9 8 9 10 11 12 11 11 10 11 13 12 14 14 13 14 14 13
4 3 1 1 1 2 4 3 3 3 4 4 3 5 4 2 2 1 3 3 1 2 3 4 3 6 5 5 2 2 7 9 12 15 18 21 24 28 31 31 32 32 33 32 31 31 30 29 29 29 28 27 29 30 28 26 23 22 20 16 15 14 13 14 14 11 10 10 10 10 9 9 10 9 7 9 11 11 10 10 10 9 10 9 9 11 12 11 11 13 12 13 15 14 15 15 15
2 3 1 1 0 3 5 3 4 4 4 4 3 4 4 3 4 3 3 4 2 3 3 5 4 6 5 4 1 4 8 11 15 16 18 22 26 30 32 33 34 34 35 35 34 33 33 32 32 32 31 29 30 33 33 31 29 27 26 22 21 20 18 18 17 16 16 14 12 11 10 10 11 9 7 8 10 12 11 11 11 11 11 10 8 10 12 12 12 13 13 13 15 14 14 16 17
2 3 3 1 2 3 3 3 5 5 5 4 1 2 1 2 3 1 3 4 2 5 5 5 3 5 4 2 1 5 10 13 14 15 18 23 27 30 32 33 34 35 36 36 36 36 36 35 34 34 34 32 31 32 33 34 32 32 30 27 25 23 21 21 19 17 17 18 17 14 12 11 11 11 10 10 10 9 10 11 11 12 11 11 10 10 12 13 13 12 14 14 13 14 15 15 17
2 2 4 1 2 2 2 2 4 4 5 3 4 1 2 3 2 1 4 4 4 5 4 5 2 5 4 1 2 3 7 10 12 16 20 24 26 29 31 33 35 35 36 36 37 37 36 36 36 35 34 34 33 32 33 34 33 33 32 30 29 26 23 23 22 20 18 18 19 17 14 13 12 12 11 11 12 8 7 11 12 12 12 12 12 11 12 13 14 13 13 13 12 12 14 15 17
2 3 4 2 1 2 3 2 3 2 4 5 2 2 2 2 1 1 5 4 5 2 1 4 1 4 3 2 2 1 2 7 11 16 21 24 26 29 32 33 35 36 37 37 37 37 37 36 36 36 35 35 35 34 34 34 34 34 34 33 32 29 26 25 25 24 22 20 20 19 17 15 14 14 13 12 11 10 6 8 10 13 14 13 13 12 13 14 13 14 14 13 12 12 13 15 17
3 2 4 1 1 1 3 2 2 3 5 4 2 1 4 2 1 3 3 4 1 1 2 2 3 2 3 4 4 3 5 9 10 14 19 24 27 30 32 33 35 36 37 38 38 38 37 37 36 36 36 36 36 35 35 35 35 35 35 34 33 31 29 28 28 28 26 24 22 21 20 18 17 16 15 14 13 11 8 8 7 11 14 14 14 13 13 14 14 14 14 14 13 13 14 14 16
2 3 4 0 2 2 3 2 1 2 5 5 1 1 5 2 2 3 2 2 3 4 2 2 4 1 2 4 5 6 9 10 10 14 18 22 26 29 31 32 34 36 37 38 39 39 37 36 36 36 35 35 35 35 35 35 35 35 35 35 34 33 31 29 29 29 29 28 26 24 22 21 20 20 18 17 15 13 11 10 8 8 11 12 14 14 14 15 15 15 14 14 14 14 15 14 15
3 4 2 2 1 1 3 3 3 2 5 4 2 0 4 1 3 2 2 6 6 5 5 3 6 5 5 5 8 11 12 11 11 15 20 23 24 27 29 30 32 34 35 36 38 39 38 36 36 35 35 34 34 35 35 35 35 34 35 36 36 35 32 31 30 30 31 30 29 28 26 24 23 22 21 20 19 15 13 12 11 10 10 11 12 14 15 16 16 16 16 15 14 15 15 14 14
3 3 1 3 2 3 5 6 6 3 3 3 3 1 5 2 1 3 3 8 6 6 7 5 7 9 9 11 14 14 14 13 15 19 23 22 22 23 24 26 29 30 31 33 36 38 38 35 34 34 33 33 34 35 35 36 36 35 36 36 36 35 34 32 31 31 31 31 31 30 28 27 25 23 22 22 21 19 16 13 13 13 13 12 12 13 15 17 17 17 18 17 15 15 16 15 15
3 3 1 4 5 5 5 6 5 3 2 2 1 0 3 4 4 4 1 1 3 7 5 5 8 8 10 12 15 16 17 18 19 23 24 21 20 19 19 22 25 27 29 31 34 36 36 34 33 32 31 31 33 35 35 35 35 35 35 36 36 36 35 33 31 31 31 31 31 31 29 28 27 25 23 22 21 21 19 16 15 14 14 14 14 14 15 17 18 18 18 18 17 16 16 16 16
2 3 1 5 6 5 4 5 6 4 1 0 0 1 1 3 4 3 4 4 2 4 4 4 6 6 6 8 13 16 19 20 21 23 22 20 20 19 18 19 21 24 27 29 31 34 33 32 32 31 30 31 33 34 34 35 34 35 34 34 35 35 35 33 31 29 29 28 28 30 29 28 27 26 24 23 21 21 21 19 18 16 16 16 16 16 16 17 18 19 19 18 19 19 18 18 17
1 3 3 5 3 3 4 4 6 2 1 2 1 1 1 2 2 3 6 4 3 5 7 7 10 11 9 7 10 15 18 19 19 20 20 20 21 22 22 21 21 21 24 28 31 31 31 30 30 30 30 30 32 33 33 33 33 34 34 33 33 33 34 33 31 28 27 26 25 26 28 28 27 27 26 24 23 23 22 21 20 19 17 17 17 17 16 17 17 19 20 20 21 22 22 21 19
0 2 4 4 2 2 5 2 2 1 4 4 3 1 2 2 1 4 8 6 4 5 5 8 13 13 12 10 11 14 16 16 17 19 19 20 21 22 24 24 24 24 25 28 29 29 28 28 29 30 30 30 31 31 31 32 32 33 33 33 33 33 33 32 30 28 26 25 24 23 25 26 27 27 26 26 25 24 24 23 21 20 19 18 17 17 17 16 16 18 20 21 21 22 25 24 21
1 4 3 2 3 2 4 3 2 2 4 3 3 3 3 3 1 3 7 5 4 3 5 12 13 14 16 14 12 11 11 12 15 18 20 20 21 21 22 24 25 26 27 26 26 26 26 27 28 29 29 29 30 30 30 31 31 32 32 31 32 32 32 32 30 28 25 23 23 22 23 24 25 26 26 25 25 25 26 25 22 21 20 19 18 18 18 17 16 16 18 21 21 22 25 27 24
2 3 5 1 3 3 4 3 2 2 2 3 3 2 3 2 2 2 3 1 3 3 12 16 15 17 17 13 10 10 11 12 15 18 20 21 21 22 23 24 24 25 27 26 25 24 24 25 27 28 28 28 29 29 29 30 30 30 30 30 31 31 31 31 30 28 25 23 22 22 21 21 23 24 24 24 25 26 26 27 25 22 20 20 20 19 19 19 18 17 17 19 21 22 23 26 28
3 2 4 2 1 4 6 3 2 1 2 2 3 1 2 4 2 3 1 3 6 9 14 15 14 14 12 10 9 9 11 13 17 18 20 21 23 24 24 24 24 25 26 26 24 23 22 23 27 28 27 28 29 28 28 28 28 29 29 29 29 29 29 29 29 28 26 24 21 21 20 19 20 22 22 22 24 25 26 27 27 24 21 19 20 19 18 18 18 18 18 19 19 21 22 23 27
0 2 3 3 4 6 5 4 5 4 1 1 2 2 4 3 1 2 3 5 7 11 12 11 12 11 9 9 8 9 11 14 16 17 19 20 23 24 24 24 24 23 24 25 25 23 21 22 25 27 26 26 27 27 27 27 27 27 26 26 26 26 27 27 27 27 26 25 22 21 20 18 18 20 21 21 22 24 26 27 26 25 22 20 18 18 18 18 17 17 18 20 20 20 22 23 24
1 3 1 1 5 6 4 4 6 4 1 1 1 4 5 2 1 1 2 5 7 12 11 8 11 9 8 7 7 12 13 13 15 17 18 19 20 21 22 23 24 22 22 25 25 23 21 22 24 25 24 23 25 26 26 26 26 26 25 24 24 24 25 25 25 25 25 25 24 22 21 18 17 19 21 22 22 23 24 26 25 24 23 21 19 18 18 18 17 17 17 19 22 22 21 23 24
1 3 1 1 6 6 5 5 6 5 2 0 3 4 4 2 2 2 5 5 8 13 10 8 10 8 8 8 8 11 13 13 16 19 17 17 18 19 20 22 23 23 22 24 25 24 23 23 24 24 23 22 24 26 26 26 25 23 23 22 22 22 23 23 24 24 24 25 25 24 22 19 16 19 22 23 24 24 23 24 25 25 24 22 20 19 18 18 18 18 17 17 20 22 22 23 25
1 4 1 5 9 7 5 5 6 4 1 2 2 3 4 2 3 2 7 7 7 11 10 8 9 7 8 8 8 8 11 14 17 18 17 17 20 21 21 21 23 25 23 22 24 24 24 25 25 25 24 24 26 27 27 26 24 21 21 21 21 22 22 22 22 22 23 24 26 25 24 21 18 19 20 21 22 22 22 22 24 25 24 23 21 19 19 19 19 20 19 18 17 19 21 22 25
2 5 3 4 9 5 3 3 6 5 2 5 3 3 4 4 4 4 8 9 10 11 8 8 7 6 7 7 7 7 9 14 15 16 18 20 22 22 23 21 23 25 24 23 25 25 24 25 27 27 26 26 27 28 28 26 24 20 20 20 21 22 22 23 23 23 23 24 25 24 21 20 18 18 18 18 18 19 19 20 23 24 23 23 22 21 20 20 20 20 20 20 19 17 19 20 23
2 4 3 3 5 5 6 5 6 6 2 6 7 3 5 3 6 3 7 7 11 11 8 8 7 6 7 7 7 6 8 13 14 16 19 20 22 23 23 22 22 24 24 24 25 24 24 26 28 28 27 27 28 28 28 26 23 21 20 21 22 23 24 24 25 25 25 25 25 23 21 19 19 18 18 18 18 18 19 19 20 22 22 22 22 22 21 20 19 19 19 19 20 19 19 20 21
4 4 4 4 2 6 9 5 3 3 3 7 7 4 6 2 5 3 4 6 9 11 8 7 8 8 7 6 7 6 6 11 15 18 20 20 22 23 23 21 20 22 23 23 23 22 23 24 25 25 25 25 26 27 26 22 19 19 21 23 24 25 26 27 28 27 27 26 26 26 24 23 23 22 21 21 21 21 21 21 20 20 20 21 21 21 21 21 20 19 18 18 18 18 19 20 20
3 3 4 6 4 6 7 4 2 3 2 6 5 2 6 2 5 7 3 7 9 11 9 8 8 8 7 5 6 5 5 8 12 17 20 21 21 22 22 20 18 20 21 20 21 22 22 23 23 24 23 24 26 27 24 19 19 21 23 24 24 25 26 27 27 26 26 25 25 26 27 26 26 25 24 23 24 23 23 23 22 20 19 20 20 20 20 21 20 20 18 17 17 16 16 18 19
4 3 2 5 4 4 6 5 2 5 4 5 2 4 6 5 7 9 2 8 10 11 8 8 8 6 6 5 5 5 5 5 7 14 19 20 21 21 21 19 17 18 19 19 20 21 21 22 22 23 23 25 27 26 23 21 22 24 25 26 24 24 24 24 24 24 24 24 24 25 27 27 27 26 24 23 23 23 22 22 22 21 20 19 19 18 18 19 20 20 19 18 17 17 17 17 18
4 5 4 5 4 3 6 7 3 6 4 4 6 5 5 8 9 8 2 8 9 9 8 8 7 6 5 5 5 5 5 5 7 12 17 19 20 19 20 18 16 17 18 17 19 19 19 20 20 22 24 26 27 27 27 26 27 28 29 29 27 25 24 22 22 22 23 24 25 26 27 28 28 26 23 21 22 22 21 21 22 21 20 20 20 19 18 18 18 19 19 18 18 18 18 18 19
5 6 3 6 8 5 7 8 3 4 4 5 5 3 4 8 8 7 5 7 9 8 7 6 5 5 4 4 4 5 5 5 8 12 14 17 18 17 18 17 16 18 16 15 18 17 17 19 21 24 26 28 30 30 30 28 28 29 30 31 30 28 26 26 26 25 25 26 27 27 29 30 29 27 23 22 22 22 22 22 21 21 21 21 21 20 19 18 18 18 18 18 19 19 19 19 18
4 5 4 6 9 8 6 6 4 1 2 6 2 3 5 7 7 6 5 7 9 8 7 6 4 4 4 4 4 5 5 5 9 13 12 14 16 15 16 16 17 18 15 14 16 15 16 20 22 25 27 29 30 30 29 27 27 27 28 28 29 30 29 29 29 29 28 28 29 30 31 31 29 27 24 22 22 21 21 21 20 20 20 20 20 20 20 19 19 18 18 18 19 19 20 19 17
3 4 6 7 6 9 8 5 4 3 3 5 0 6 5 5 5 5 5 6 7 5 6 5 4 4 3 4 4 4 4 4 7 11 12 12 14 15 16 17 19 19 14 12 13 13 16 20 21 23 26 28 28 28 28 27 27 27 27 27 28 30 29 28 27 27 28 28 29 31 31 28 26 25 23 21 20 19 19 19 19 20 19 20 21 21 20 20 20 19 19 20 19 19 20 20 17
3 3 5 6 5 7 8 4 2 2 3 5 2 6 3 4 4 5 5 5 5 4 5 4 4 4 3 4 4 4 4 4 5 8 10 12 13 15 17 17 19 19 12 9 12 14 16 18 19 21 24 26 27 28 28 29 29 27 27 28 29 30 28 25 25 26 27 28 29 30 27 24 24 25 24 21 20 19 19 20 21 21 21 21 22 22 22 21 21 20 20 21 20 21 22 20 17
4 5 5 6 6 5 6 6 5 4 4 3 3 5 2 2 4 5 5 3 4 4 5 5 4 4 5 4 4 4 3 4 5 6 7 11 13 15 17 18 20 18 9 8 13 14 15 17 18 20 22 24 26 27 28 29 29 27 27 28 28 28 27 26 27 28 28 28 29 27 24 24 25 25 24 22 21 21 21 22 23 23 23 23 23 23 22 21 21 21 21 22 22 21 21 19 17
5 5 4 7 8 6 7 11 11 8 4 0 3 3 1 2 3 3 1 2 3 4 5 5 4 4 5 4 4 4 3 2 4 5 6 10 13 15 17 18 20 17 9 8 14 14 16 19 19 21 23 24 25 26 28 29 27 26 26 27 28 28 28 28 28 27 27 28 28 26 25 24 23 23 23 23 22 22 22 23 23 24 25 24 23 22 21 20 20 20 21 22 24 23 22 21 19
7 5 5 6 8 9 12 13 10 7 4 1 3 3 3 3 4 4 3 2 3 2 3 4 4 4 4 3 2 2 2 1 4 5 6 10 13 15 17 17 19 17 11 10 13 16 18 20 20 22 24 24 25 26 28 28 26 24 25 27 28 27 26 25 25 26 28 27 26 25 23 22 21 21 22 23 23 22 23 23 23 24 25 26 26 25 24 22 21 21 21 23 25 25 25 23 21
7 3 2 4 8 11 15 14 7 3 5 4 2 0 4 2 4 7 5 4 4 3 3 4 3 2 2 1 1 2 2 1 3 5 7 10 13 15 17 18 19 19 15 14 15 18 18 19 20 21 22 23 24 25 27 27 24 23 25 27 29 28 25 24 26 28 28 28 28 27 25 23 22 20 20 21 21 22 22 23 24 24 25 25 26 26 25 25 24 24 23 24 25 26 27 24 21
7 4 3 8 11 12 14 12 4 2 5 6 1 1 3 3 4 6 7 5 4 3 2 2 2 2 2 3 3 3 2 2 4 6 8 11 14 16 19 19 19 20 17 16 18 19 17 17 18 18 19 20 21 23 24 23 21 22 25 28 30 29 27 28 30 29 30 32 31 30 30 28 23 19 19 20 21 22 23 23 24 24 24 25 25 25 25 25 25 26 26 26 25 26 28 27 24
7 7 6 8 9 10 11 8 5 2 2 5 4 2 3 5 2 3 5 5 5 3 1 1 1 3 3 3 4 4 3 4 6 8 10 14 17 19 21 21 21 22 19 19 22 20 17 17 17 17 17 19 20 21 21 19 19 22 26 28 30 31 30 30 30 31 33 34 33 34 32 26 20 17 18 20 21 22 23 24 24 24 24 23 24 24 25 25 25 26 27 27 26 27 29 29 27
8 8 9 8 6 5 4 3 4 4 2 3 6 3 2 5 2 3 3 4 4 2 2 1 2 3 3 3 6 5 5 5 7 9 13 16 20 22 24 24 24 24 22 22 24 21 16 17 17 17 18 19 20 21 20 19 21 24 27 29 32 31 29 29 31 33 33 31 32 32 26 20 17 18 19 20 21 22 24 24 23 23 23 22 23 24 26 27 27 27 28 29 28 28 28 29 29
7 7 9 9 5 2 1 2 3 5 3 4 6 3 3 5 2 3 1 1 2 4 3 3 3 4 4 4 6 5 5 6 7 10 14 19 22 24 25 24 25 26 25 25 27 22 16 18 18 18 20 20 21 20 20 21 24 27 29 31 32 29 27 29 31 31 30 29 29 25 20 19 19 19 20 20 20 22 24 25 23 22 23 23 25 27 28 29 28 27 28 29 28 26 25 26 27
5 5 7 10 7 3 3 3 5 3 5 5 4 5 4 5 3 3 3 3 6 5 4 4 5 6 5 5 6 6 6 7 8 9 12 18 22 22 23 23 25 26 25 26 28 22 16 18 19 19 20 20 20 20 21 24 27 29 30 31 30 28 28 29 28 28 28 28 26 23 22 21 19 18 19 19 20 22 25 25 23 22 23 25 27 29 30 30 29 28 27 26 24 23 24 24 26
6 6 7 8 6 5 5 5 4 2 6 6 6 6 4 6 1 4 6 4 4 4 1 4 5 6 7 6 7 7 6 8 9 9 11 15 19 21 23 23 25 25 25 27 26 19 16 19 20 20 20 20 20 21 24 27 29 30 32 31 29 28 27 27 26 27 28 28 26 23 19 16 15 17 19 21 22 22 24 25 23 24 25 27 28 30 32 33 32 30 29 27 25 25 25 26 27
6 4 4 4 5 7 8 7 6 5 8 10 8 4 4 6 1 5 7 5 4 4 2 4 4 5 7 7 7 8 8 9 10 10 10 13 19 24 25 25 25 24 24 26 22 15 16 21 21 19 19 20 22 24 27 29 30 32 33 31 29 27 26 26 27 29 30 29 27 24 20 19 20 22 22 23 22 22 25 26 26 26 28 29 31 33 35 35 33 30 30 29 28 28 27 27 28
3 1 2 3 4 6 7 6 7 8 9 10 7 2 4 6 1 5 6 5 4 3 3 4 4 5 6 7 7 9 10 10 10 11 12 16 23 26 25 26 25 23 23 20 14 14 20 22 19 17 18 21 24 27 29 30 33 34 33 29 27 25 27 29 30 30 27 25 23 22 21 22 23 23 23 23 24 25 26 26 26 27 28 30 33 36 36 35 32 30 29 29 30 29 28 28 29
2 1 3 3 4 4 4 6 7 9 10 8 4 1 4 2 0 4 4 3 2 1 3 4 4 6 7 8 10 11 12 11 12 12 13 19 26 26 24 26 25 22 20 14 14 21 24 19 16 17 20 24 26 28 30 32 35 34 30 26 25 28 31 31 28 24 22 22 22 23 24 26 26 26 27 27 28 26 24 23 25 27 29 31 34 35 33 31 30 29 29 29 29 29 28 28 29
2 3 4 6 4 2 1 6 8 8 9 5 2 4 4 2 0 1 1 3 5 6 8 9 9 10 11 12 12 13 14 14 13 13 14 20 24 22 23 24 22 18 16 16 22 25 20 16 17 21 24 26 29 31 33 34 34 31 26 24 28 31 29 24 20 19 22 25 27 27 27 27 26 25 25 24 23 22 22 24 26 27 27 28 29 29 28 28 28 30 30 30 29 28 27 28 29
3 3 5 5 2 3 2 4 6 7 8 6 4 9 10 6 2 0 2 7 10 10 12 13 11 12 13 13 14 16 15 14 14 15 18 20 19 20 22 23 20 17 18 22 24 19 16 18 21 24 26 29 31 33 35 35 31 25 23 26 29 27 21 18 20 23 25 28 28 26 24 22 21 21 22 22 21 22 23 23 24 24 24 23 24 26 27 28 30 31 31 31 30 28 27 28 28
3 2 3 3 5 4 3 2 4 6 9 9 9 11 7 4 4 2 2 9 14 16 15 13 12 13 13 15 17 17 14 12 14 16 15 14 18 21 23 23 22 22 24 23 19 17 20 23 24 26 29 32 34 36 34 30 25 22 24 26 26 22 19 19 23 24 26 27 25 21 20 21 21 23 24 26 26 27 26 25 25 26 26 27 28 28 28 29 30 30 29 28 27 26 27 27 28
3 2 3 3 3 2 1 1 1 3 7 10 13 12 5 3 4 3 6 13 18 19 15 11 13 15 16 17 17 14 12 12 14 14 11 13 19 23 24 26 26 26 25 21 20 22 24 25 27 31 34 36 36 33 28 24 23 24 25 24 23 22 22 22 23 24 25 25 23 22 22 23 23 24 26 28 28 27 26 25 25 26 28 29 30 30 29 28 27 27 26 25 24 25 26 27 27
5 5 5 5 2 2 2 2 2 2 4 8 11 11 7 4 2 3 11 18 18 16 13 13 16 18 19 18 15 13 14 14 14 11 11 15 21 24 26 27 26 25 24 22 23 25 26 28 33 36 37 36 32 26 23 23 24 24 23 24 24 24 25 25 24 24 24 24 24 25 25 25 25 25 26 27 27 25 25 25 26 26 27 29 30 30 27 23 21 22 21 22 24 25 25 26 26
3 4 4 3 2 3 6 6 1 3 1 6 7 9 9 5 1 5 13 17 15 13 14 17 18 19 19 15 14 16 16 13 12 12 14 17 20 23 25 25 23 22 22 23 26 28 30 33 36 37 34 29 24 21 24 26 25 23 23 25 25 25 25 25 25 25 24 24 25 26 26 26 26 26 26 26 26 25 24 25 26 27 28 29 28 25 20 17 18 20 19 17 20 24 25 25 24
Wind_Direction
344 353 8 42 97 136 86 51 80 327 72 253 276 126 269 266 280 271 267 278 50 325 348 36 42 65 83 117 124 108 46 54 93 327 166 331 329 352 4 7 8 3 2 1 358 1 208 213 219 240 233 213 200 199 205 200 194 188 195 193 195 213 211 226 246 253 255 236 231 233 233 195 185 201 193 192 227 235 231 240 240 229 232 241 251 249 233 212 211 202 183 179 179 154 136 134 109
358 16 42 86 94 106 247 53 116 327 11 255 267 156 270 323 317 253 250 208 164 294 79 90 82 72 72 102 106 93 48 69 39 323 205 345 346 7 9 17 18 15 16 11 5 337 247 235 228 243 251 227 206 199 209 207 208 198 198 198 216 243 237 244 282 262 251 246 231 226 223 203 197 207 213 200 203 232 236 238 245 237 239 249 260 258 242 220 215 212 203 194 192 179 148 146 163
12 50 76 99 85 43 79 41 93 155 245 251 285 242 286 319 260 259 265 237 227 231 164 94 78 50 38 62 36 56 76 90 28 354 298 358 3 353 6 26 28 30 28 24 26 8 354 318 263 248 248 238 220 205 212 207 207 212 212 210 224 251 271 267 278 265 253 260 244 233 221 213 216 210 219 211 200 219 235 234 247 249 247 258 264 256 245 230 221 219 213 199 195 191 166 152 191
31 60 91 105 80 15 75 40 214 150 232 243 296 270 260 248 257 279 274 264 268 220 183 55 51 355 44 71 11 49 60 1 15 12 329 1 359 346 10 34 35 41 38 39 39 31 21 353 316 294 268 252 233 220 226 211 214 224 227 233 239 245 279 294 279 264 260 271 263 253 231 218 231 223 218 221 209 205 231 240 246 256 254 261 269 259 244 237 228 221 216 208 202 190 183 196 225
59 78 88 87 88 357 99 78 86 140 227 182 234 266 243 233 254 268 271 334 343 81 140 93 79 350 56 75 24 81 345 298 7 19 5 356 5 10 29 42 44 48 45 48 47 46 30 7 357 353 331 292 245 240 259 258 268 245 247 246 254 250 263 300 299 281 276 285 277 267 255 231 229 233 231 233 221 203 224 242 247 255 254 259 267 266 248 242 238 225 216 212 207 189 188 193 195
93 93 64 65 88 110 117 250 236 234 232 172 206 262 259 242 243 239 214 75 70 63 81 80 108 113 70 57 60 81 358 331 359 15 9 1 19 34 44 49 52 54 52 55 54 57 43 28 23 26 29 22 243 249 313 307 304 295 313 266 248 271 266 290 307 301 294 298 293 279 271 256 243 246 252 250 227 208 215 227 244 251 251 254 258 266 258 249 244 231 217 209 209 195 192 178 155
111 115 33 70 71 26 127 218 223 237 239 181 195 248 270 263 245 227 248 178 82 46 56 74 110 111 77 98 85 52 39 45 46 25 22 22 34 45 53 56 58 58 56 58 59 62 57 47 38 38 42 44 59 55 36 3 340 338 343 327 260 301 301 297 304 306 304 300 297 293 282 269 258 253 254 259 241 219 218 217 234 243 248 251 250 262 263 259 249 239 223 210 211 202 199 185 160
91 127 17 105 191 2 128 238 238 216 240 219 216 233 261 260 225 157 304 310 117 33 44 41 72 93 50 71 100 44 44 50 61 51 43 44 47 52 58 61 61 60 59 61 62 65 65 59 52 47 45 46 50 48 50 45 28 16 7 24 18 347 342 335 322 313 319 314 300 302 299 286 269 260 254 255 252 241 233 225 233 241 250 250 246 259 264 266 259 249 233 214 214 208 205 195 175
52 59 64 108 182 310 299 275 267 237 250 266 258 238 265 250 179 144 142 47 88 56 35 317 319 107 118 69 87 30 38 48 68 60 53 52 52 57 60 62 61 59 61 63 63 65 67 66 62 56 52 50 48 47 48 48 42 37 36 37 28 19 15 9 1 341 335 331 320 319 321 312 297 288 272 260 256 251 243 237 240 243 256 257 248 258 268 271 266 261 246 223 219 209 206 198 180
39 30 142 119 132 271 295 273 267 270 249 271 276 249 267 233 142 71 125 98 358 77 36 333 40 111 126 93 87 43 39 48 66 58 56 57 56 60 62 61 61 60 60 61 63 64 65 66 66 62 58 55 52 49 48 48 44 40 40 38 33 29 25 20 19 17 5 349 335 332 339 338 329 319 288 275 269 258 252 248 245 244 251 257 256 265 274 274 269 276 267 234 225 213 208 200 179
35 352 91 121 59 251 267 262 273 271 271 311 303 257 244 191 117 52 82 99 25 66 22 356 76 112 98 94 106 65 59 57 61 59 60 63 62 62 63 61 61 62 59 58 61 61 61 62 63 62 60 60 58 53 50 48 46 43 40 40 37 33 29 22 18 15 12 4 354 347 347 348 345 343 327 309 286 264 259 256 249 247 249 249 254 263 274 277 271 282 280 251 233 221 209 199 181
69 331 58 109 227 233 239 241 273 280 303 324 258 268 219 139 103 92 109 104 46 59 21 2 125 132 83 86 133 74 63 63 67 70 70 69 67 64 64 62 62 61 58 58 59 57 55 55 57 56 56 59 59 57 52 47 47 47 42 42 41 36 31 26 20 12 10 7 4 3 354 351 350 349 347 343 329 290 265 264 257 251 254 249 248 255 267 276 273 278 281 267 243 227 214 198 183
113 138 88 164 208 194 216 223 275 302 315 275 209 296 46 78 42 226 128 88 29 76 24 333 167 109 88 135 114 57 55 73 80 78 76 72 70 67 65 63 61 60 57 57 57 53 50 50 49 49 50 52 53 55 51 45 45 45 42 42 42 40 36 31 28 21 15 10 7 10 2 354 348 344 339 337 349 344 285 276 270 257 257 251 252 255 259 269 276 277 278 276 254 234 222 203 188
145 149 115 212 241 130 198 247 280 269 272 259 237 327 36 69 77 166 126 79 21 89 275 312 135 105 113 148 97 349 86 105 94 82 77 72 70 67 65 62 60 58 56 55 53 49 48 47 45 44 44 44 45 47 46 43 42 41 39 39 40 41 40 36 33 28 23 18 13 14 10 3 353 346 339 329 335 348 328 300 278 260 262 257 255 259 260 265 270 272 274 275 263 252 236 210 197
151 142 92 164 298 358 215 234 236 192 241 246 220 107 80 67 126 96 101 117 67 301 269 349 46 127 166 149 171 208 135 125 108 87 77 72 69 67 64 61 59 56 55 53 50 47 45 44 43 42 40 40 39 40 40 39 39 39 37 35 35 37 37 36 34 32 29 25 21 18 15 10 5 357 349 339 330 329 329 327 300 270 274 268 259 258 262 268 268 265 269 270 266 267 254 226 210
114 109 70 21 269 301 233 216 164 158 249 239 225 110 95 1 42 84 318 133 122 351 8 357 0 65 115 123 154 145 125 124 110 90 78 71 67 65 61 59 57 55 53 49 46 43 42 42 41 40 39 38 37 36 36 36 36 36 35 33 31 31 31 31 30 29 29 28 25 22 18 13 9 4 358 352 342 328 316 315 312 293 289 279 266 258 257 265 270 267 265 269 270 270 263 246 224
65 84 61 303 236 234 224 203 186 182 262 259 264 267 117 338 11 117 354 60 86 34 41 22 10 45 61 86 111 113 120 122 106 85 72 66 61 60 57 55 55 53 51 47 42 38 39 41 40 39 37 36 35 34 33 31 30 29 29 29 28 27 26 25 23 23 24 24 23 22 21 17 13 7 1 357 352 343 326 309 301 299 298 288 275 267 260 259 264 269 269 271 271 268 268 257 240
55 82 130 267 217 204 198 191 201 185 265 249 222 179 139 183 189 159 55 50 73 62 44 35 40 45 59 85 98 102 108 102 90 78 69 63 58 57 54 54 54 53 51 46 40 35 37 39 39 39 36 33 31 30 30 27 25 23 22 22 24 23 23 22 19 18 17 18 19 19 18 16 14 9 4 358 354 350 341 323 306 300 300 297 288 277 270 263 254 258 267 271 270 267 270 260 247
94 120 158 240 207 216 205 187 204 201 244 229 206 118 181 205 160 154 126 68 92 78 50 45 65 59 63 82 93 96 93 84 77 73 68 63 59 59 56 56 56 54 51 46 38 34 36 39 39 38 35 31 27 26 26 23 21 20 18 18 19 19 20 19 17 15 13 13 12 11 13 12 10 8 5 360 354 349 345 337 324 309 302 301 298 286 276 273 262 255 259 263 267 264 267 263 250
140 129 261 246 216 239 237 198 214 232 278 94 192 52 230 220 151 161 161 162 179 141 156 114 113 117 95 89 94 93 86 80 75 73 70 65 60 57 55 54 54 54 51 45 38 34 36 38 37 35 32 28 25 23 21 19 17 17 16 16 15 16 17 18 17 13 10 9 5 2 4 7 6 3 1 358 355 350 345 340 334 325 312 305 302 297 287 282 275 266 262 257 259 261 263 266 256
135 148 205 238 217 252 269 217 220 246 43 95 131 58 312 234 162 147 139 141 260 226 200 164 152 148 134 122 105 97 89 83 78 75 71 65 58 53 52 52 53 54 50 42 37 34 35 36 34 32 29 26 22 19 17 15 14 13 14 13 12 13 14 16 16 12 8 4 1 356 356 359 1 359 357 355 354 353 349 343 337 332 325 317 309 306 301 292 282 273 272 266 260 260 262 265 260
163 236 210 215 160 242 297 296 232 131 94 88 104 203 206 172 137 149 157 175 237 235 205 154 145 144 138 134 121 106 97 91 84 77 70 64 59 54 53 54 54 51 46 41 36 34 34 34 31 28 25 22 19 16 14 12 12 11 10 9 8 9 9 11 12 10 6 360 355 351 350 352 354 353 352 351 350 349 348 345 342 335 328 323 318 313 309 303 293 279 275 275 272 268 262 258 258
250 289 321 219 174 227 318 349 279 149 120 126 171 210 124 115 274 187 181 209 268 257 149 133 133 137 133 127 123 113 105 103 91 80 72 69 63 58 55 52 51 48 45 41 36 33 33 32 27 24 23 20 17 14 13 12 11 9 7 6 5 5 4 5 7 6 3 356 350 347 347 347 346 346 345 345 345 344 342 341 341 337 329 322 318 314 309 305 303 294 282 276 277 279 270 256 252
112 271 319 294 188 228 292 310 272 147 165 231 181 138 102 169 239 143 185 294 3 87 120 122 125 128 125 118 115 111 108 101 90 82 75 71 67 61 58 55 53 50 45 39 35 32 30 28 23 21 21 19 16 14 12 11 8 6 5 3 2 1 359 359 0 0 358 354 349 345 343 341 338 338 339 339 339 339 337 335 336 336 330 320 313 311 307 300 299 299 293 283 280 282 279 263 250
74 252 302 319 238 273 294 317 349 315 262 248 131 139 251 221 184 97 99 65 78 105 110 114 118 117 114 111 111 108 97 84 79 77 72 67 65 61 55 53 50 48 44 37 33 30 26 23 20 19 18 16 15 12 10 8 5 3 2 0 359 358 356 355 354 354 353 350 347 341 337 335 332 331 332 332 331 331 331 330 331 332 331 322 312 307 304 299 294 293 292 292 291 286 284 274 254
243 259 306 337 317 315 329 17 7 324 279 116 138 288 291 242 169 47 69 99 109 106 104 111 114 110 112 113 107 97 83 76 76 75 70 64 60 57 51 47 44 42 40 35 30 28 23 20 18 17 17 14 12 10 6 3 1 358 358 357 355 354 353 352 350 350 349 345 341 337 332 328 326 324 324 324 323 323 324 324 325 327 328 326 318 309 303 299 293 289 286 289 296 294 289 282 263
266 289 264 29 324 316 353 33 356 341 48 74 228 277 293 281 275 288 96 121 121 105 104 111 112 115 116 108 88 85 82 80 81 75 68 61 56 53 49 43 39 36 34 30 26 24 22 19 16 14 15 13 9 7 3 358 356 354 353 353 352 352 350 348 346 346 345 341 336 332 328 323 321 320 320 320 318 317 318 319 319 321 323 325 323 315 305 298 292 287 285 283 286 292 296 291 276
336 334 204 310 338 328 358 18 352 8 61 102 191 257 300 337 300 206 144 137 128 113 115 115 116 124 111 99 88 87 89 87 81 74 68 60 53 50 46 41 35 31 29 27 22 21 21 18 14 10 10 8 4 0 357 353 350 349 349 349 349 348 346 345 344 342 341 338 333 328 325 321 318 317 318 317 314 313 313 314 314 315 317 319 321 319 311 301 295 287 284 281 276 279 287 293 287
340 24 74 309 355 354 348 360 344 13 23 316 228 293 341 276 310 89 130 134 122 112 119 123 122 123 102 98 97 94 94 88 79 73 69 62 53 46 42 37 32 27 25 24 20 19 19 15 11 6 2 358 356 353 350 348 344 344 343 343 345 344 344 343 341 340 338 335 332 329 323 317 314 314 315 314 311 309 308 308 308 309 310 311 313 316 316 309 301 292 287 284 277 273 275 284 289
305 21 63 337 2 343 324 353 340 11 11 349 2 336 327 271 349 77 145 137 124 117 123 133 123 109 98 100 100 95 89 83 78 72 65 57 49 41 37 33 30 26 22 21 17 15 13 10 5 1 357 352 351 350 347 345 342 340 339 340 342 342 342 340 339 337 334 331 332 331 327 321 320 319 316 313 310 306 304 302 303 305 306 307 306 308 314 314 309 301 295 290 283 280 276 276 283
336 358 47 30 8 289 312 344 349 10 353 12 26 315 281 287 20 69 177 144 130 129 131 136 114 98 102 101 98 90 81 79 75 68 59 51 44 36 31 28 28 25 21 20 15 11 9 4 360 355 352 349 348 348 345 341 337 335 336 339 340 339 338 336 335 332 328 326 325 326 325 324 323 323 321 318 313 307 305 302 301 303 304 304 302 302 306 311 313 307 301 297 291 285 282 280 281
26 6 344 356 5 291 315 331 16 33 307 7 27 304 270 260 14 7 171 142 131 131 136 130 105 104 107 100 99 91 79 78 71 63 53 45 39 31 25 22 25 25 22 20 14 10 6 359 354 350 349 348 347 347 342 336 333 335 336 336 335 334 333 332 331 329 325 321 317 315 315 316 316 316 317 315 314 311 309 307 305 304 303 302 300 298 299 303 309 309 304 300 296 290 286 283 283
9 35 324 306 321 313 321 322 51 69 310 350 27 281 278 283 9 350 172 152 136 132 133 116 107 112 109 103 102 96 88 76 66 60 50 42 35 28 23 19 21 24 21 17 11 7 1 354 351 350 349 348 346 345 342 339 340 341 339 337 334 332 331 330 329 326 323 320 315 311 312 313 312 313 313 312 310 309 307 307 308 307 305 302 299 296 295 297 301 306 306 300 294 291 288 284 283
326 20 316 275 277 292 311 305 328 34 4 325 324 234 272 321 351 334 233 154 134 130 126 116 116 116 109 110 106 97 92 80 65 59 49 39 32 26 22 18 20 20 13 9 6 2 357 354 354 355 355 351 351 351 350 348 346 343 340 338 332 328 329 328 326 323 321 321 319 315 315 316 314 313 312 310 307 304 302 302 305 308 308 305 301 297 294 294 295 298 302 300 293 288 288 287 285
299 317 313 296 279 241 277 288 310 21 3 290 291 272 296 339 344 346 55 130 123 118 116 116 119 116 115 109 101 97 85 76 66 58 46 35 29 25 21 17 18 10 2 3 2 359 358 0 4 5 3 360 359 359 355 351 348 345 342 338 331 327 328 327 326 323 320 319 319 318 318 318 317 314 310 308 306 302 301 298 299 304 307 306 304 301 298 295 293 292 294 293 291 289 288 289 290
266 284 280 292 298 275 258 265 276 0 337 281 284 289 335 348 350 12 57 110 108 106 110 112 115 110 109 99 94 91 80 71 59 49 40 32 25 21 18 13 6 356 352 359 0 3 9 11 10 8 5 1 359 357 354 350 347 343 341 337 331 325 325 325 324 322 320 318 316 317 317 317 317 313 307 306 305 305 304 302 302 303 306 307 305 304 302 300 297 291 287 285 287 290 289 287 290
270 289 281 281 292 296 280 266 273 344 334 276 254 68 19 360 360 22 62 99 98 105 110 105 104 98 94 95 88 80 73 61 51 39 28 27 21 16 12 4 355 346 345 360 7 14 16 11 9 6 3 0 358 354 349 345 341 337 335 332 327 321 318 318 318 319 318 317 315 315 316 315 312 308 305 304 304 306 308 310 310 307 307 308 307 305 304 303 300 293 285 279 281 287 290 288 288
298 295 299 305 289 291 293 275 280 34 22 293 354 66 28 9 8 23 60 87 89 98 108 100 95 86 77 86 75 64 58 41 40 27 16 18 15 9 1 355 349 340 344 8 16 16 9 7 7 4 1 358 354 349 343 338 333 329 326 323 320 316 311 310 313 314 314 312 311 311 311 308 304 302 300 301 301 303 307 311 311 308 306 306 306 304 303 303 299 295 287 277 276 282 287 288 286
319 305 309 315 306 302 298 268 239 57 350 303 51 75 32 20 32 32 41 78 86 76 93 98 90 73 56 69 61 45 41 27 21 9 7 9 3 359 352 348 344 338 346 11 9 6 3 4 3 358 358 355 351 347 343 336 329 325 321 318 317 312 306 305 308 309 308 306 304 304 300 294 293 294 293 294 297 299 303 305 307 307 307 307 307 304 301 301 299 295 287 277 277 282 283 282 279
331 324 320 308 316 330 312 304 309 304 284 282 80 90 87 53 59 49 28 55 82 69 70 70 69 66 57 69 71 48 27 16 8 353 358 360 352 349 346 342 340 337 343 357 356 358 356 356 355 352 354 352 348 346 342 337 330 325 323 321 319 313 306 306 306 304 303 301 300 297 289 284 285 285 285 288 293 296 299 302 303 304 305 307 310 307 302 300 298 295 288 280 278 279 277 274 273
324 302 278 289 311 312 290 300 310 313 305 200 81 61 169 164 125 104 84 61 80 83 77 66 52 52 52 67 74 45 17 11 3 343 343 349 343 339 338 336 337 334 323 331 344 348 346 347 347 346 347 346 345 343 341 338 330 325 327 326 324 317 310 309 307 305 304 301 297 292 285 280 278 277 279 283 289 294 296 298 301 301 300 301 303 306 303 300 296 291 285 281 278 276 272 270 272
324 288 239 267 305 305 295 303 317 334 325 246 73 357 287 187 173 181 182 171 142 115 89 85 62 47 45 48 68 21 1 4 355 335 327 335 331 328 329 330 332 326 305 303 326 334 337 340 340 340 341 341 340 339 339 337 330 327 329 328 324 317 311 310 310 311 309 306 302 296 287 279 278 279 279 281 285 291 295 297 298 299 298 295 295 298 299 297 293 288 283 280 279 276 271 266 267
323 288 206 289 311 307 300 308 330 341 295 279 95 309 269 229 211 204 189 188 181 154 103 97 70 50 40 341 275 312 327 329 336 323 314 321 322 322 324 324 325 320 300 289 307 319 327 332 333 333 334 335 336 335 336 334 326 323 325 323 319 312 307 307 309 309 307 304 303 298 289 281 280 281 282 285 288 292 298 299 299 300 298 293 291 293 294 293 290 288 284 281 279 276 269 260 260
308 297 10 328 314 303 299 309 316 243 287 304 25 159 246 265 237 194 171 189 205 184 141 99 55 13 347 311 289 289 294 302 322 321 313 314 315 316 316 314 313 311 295 280 291 302 313 322 324 326 327 328 329 330 330 326 318 316 318 317 312 306 301 301 304 304 302 300 297 293 288 279 273 276 285 291 295 298 302 304 303 302 299 293 291 291 291 289 288 287 285 282 278 274 267 259 257
286 298 328 304 288 284 287 302 298 273 323 310 324 22 277 283 301 132 151 197 219 191 121 51 342 304 310 316 305 290 284 305 313 311 307 308 310 311 309 304 302 303 291 279 284 290 301 315 317 318 319 320 322 324 323 316 310 311 313 311 307 301 297 298 302 303 301 297 291 288 281 270 265 275 287 294 298 301 305 307 304 299 296 292 290 290 289 288 287 285 282 280 277 272 267 260 256
291 308 318 299 277 276 285 314 313 339 69 272 300 3 327 293 299 125 168 231 231 156 82 349 295 290 282 298 309 295 289 302 301 299 300 305 309 308 305 299 295 299 295 286 283 284 297 312 315 314 314 315 317 319 317 311 309 311 311 308 303 298 296 300 303 302 299 294 290 284 272 260 270 284 291 295 297 301 305 306 300 291 287 285 285 288 289 290 287 284 281 278 274 270 264 259 255
316 331 330 326 322 340 18 33 13 4 0 290 303 10 21 315 293 139 164 251 116 97 36 320 298 309 289 281 302 292 285 295 298 300 302 308 310 307 302 294 292 297 297 291 283 280 295 312 314 312 310 311 313 315 313 309 310 311 309 307 302 296 298 303 302 300 297 294 291 285 274 273 281 287 292 294 295 299 304 303 294 282 277 277 283 289 291 291 289 286 283 276 269 266 265 264 261
352 352 344 341 340 10 3 0 47 12 303 304 338 5 346 295 300 86 102 85 94 94 22 324 296 311 304 278 292 293 285 290 297 304 307 311 312 308 303 297 296 297 296 294 286 279 296 311 311 308 305 307 310 311 310 310 311 310 309 307 300 296 299 301 299 299 298 295 291 286 280 280 281 284 289 290 293 298 301 300 287 271 271 277 284 289 289 289 288 286 280 272 267 267 269 269 266
7 5 4 353 338 349 338 330 359 306 279 312 351 357 317 271 294 107 132 111 105 134 338 303 278 297 299 288 298 298 289 293 302 309 313 315 314 314 311 307 304 298 293 294 287 280 297 310 310 305 302 306 310 311 312 312 311 311 309 305 298 296 298 298 297 299 298 297 298 296 291 291 293 293 292 290 291 294 296 294 278 267 273 281 285 287 288 287 285 282 277 272 271 270 269 267 263
356 358 11 13 349 334 322 316 320 297 291 309 329 344 290 285 315 135 146 136 145 170 236 263 254 280 289 288 295 298 301 304 308 310 313 318 319 317 314 310 306 297 293 293 285 283 304 310 308 303 301 308 313 314 314 313 312 311 309 303 297 297 298 298 298 296 293 291 296 299 298 300 300 296 293 290 290 291 290 285 275 272 278 282 285 286 286 285 281 277 272 268 267 266 265 263 260
312 229 108 58 351 313 304 307 310 309 305 310 332 336 258 291 294 157 149 147 169 189 246 250 251 276 285 289 297 307 312 312 313 315 318 320 318 314 312 312 308 302 300 297 287 300 311 309 306 306 308 314 316 316 315 313 313 311 308 302 298 300 301 299 296 293 289 289 296 300 300 303 300 296 294 293 293 291 286 279 274 276 280 282 285 286 285 282 277 273 269 264 263 262 261 259 258
264 145 83 16 310 271 275 297 300 308 307 303 326 266 229 269 200 157 142 157 213 295 310 310 313 312 316 321 321 323 322 320 321 322 322 319 315 313 316 318 317 315 317 314 311 314 312 310 315 317 318 319 318 317 316 314 313 310 306 302 303 305 302 296 292 291 295 300 306 306 303 301 297 293 292 292 290 286 280 278 280 281 283 285 285 284 282 280 276 273 268 262 259 259 259 258 258
331 25 347 302 291 179 246 312 309 313 311 296 298 305 301 319 276 164 169 299 321 339 345 348 346 339 336 333 331 328 324 321 323 325 321 316 314 319 327 328 328 331 331 322 317 316 318 325 330 326 323 322 320 318 316 314 312 308 305 306 308 306 301 296 296 302 306 308 307 304 300 296 293 292 293 292 288 284 284 285 285 284 285 286 284 280 276 275 274 273 267 261 257 257 258 257 257
44 3 307 294 323 107 96 331 312 310 308 297 310 318 317 320 325 350 279 309 329 342 347 349 347 341 333 329 329 325 321 322 326 325 317 314 322 333 335 332 331 332 326 321 321 327 337 339 334 330 326 322 319 317 315 312 310 308 308 310 308 305 301 303 308 310 310 309 305 301 301 300 299 301 303 301 298 296 294 290 285 282 282 281 280 279 278 276 275 273 267 259 256 255 256 256 255
68 328 314 3 354 350 32 348 298 316 314 304 312 315 311 317 332 3 300 319 338 346 347 346 339 334 331 329 327 323 325 330 328 323 317 326 338 336 332 329 327 326 326 330 338 347 346 339 335 330 325 320 317 314 312 312 312 312 311 310 307 304 304 306 308 309 309 306 301 299 304 305 304 305 305 303 301 299 296 291 285 282 279 277 279 281 281 279 279 277 266 255 254 255 254 255 254
27 356 357 26 351 300 139 188 243 328 311 306 316 318 325 339 329 352 338 336 346 347 344 342 335 335 335 330 325 327 335 334 325 322 328 339 337 331 331 330 328 330 337 348 357 351 344 338 334 328 321 317 315 314 315 316 316 316 313 311 309 308 308 307 305 306 304 301 298 298 302 303 301 301 300 299 298 295 291 288 284 281 278 277 279 281 281 278 281 283 270 254 253 256 253 253 253
360 4 358 359 354 246 269 292 118 106 303 311 315 309 318 342 330 340 343 345 349 347 342 338 334 335 332 325 326 336 336 329 328 333 338 337 334 334 335 335 337 345 353 358 354 344 338 335 330 325 319 316 317 322 327 324 320 318 316 316 315 312 310 309 306 305 302 299 298 297 298 299 298 297 296 294 291 289 287 285 282 279 276 277 279 279 278 277 283 292 282 259 252 255 255 253 251
26 5 3 5 4 350 337 323 344 112 297 299 296 290 305 329 355 342 346 347 346 347 343 335 331 330 325 323 337 340 333 331 337 342 339 337 338 340 342 347 354 357 355 351 344 337 333 329 327 324 320 320 327 335 334 326 321 320 319 318 316 313 311 309 308 306 303 300 299 298 298 297 296 295 293 290 288 287 286 285 283 280 276 276 277 276 277 284 294 302 300 281 260 252 250 250 247